GW2402 Weather Reports


Display with metric or nautical units.
time (UTC)temp
F
wind
direction
speed
MPH
gust
MPH
rain 1hr
in
rain 24hr
in
rain mn
in
humidity
%
barometer
mb
20260505073058 71 0 1.0 7.0 0.00 0.00 0.00 86 1008.5
20260505071549 71 0 0.0 3.0 0.00 0.00 0.00 86 1008.7
20260505070055 71 278 0.0 3.0 0.00 0.00 0.00 86 1008.8
20260505064546 71 93 0.0 7.0 0.00 0.00 0.00 86 1009.1
20260505063107 71 0 0.0 4.0 0.00 0.00 0.00 86 1009.1
20260505061544 71 350 1.0 4.0 0.00 0.00 0.00 86 1009.3
20260505060043 71 0 1.0 3.0 0.00 0.00 0.00 85 1009.3
20260505054604 71 0 0.0 2.0 0.00 0.00 0.00 85 1009.6
20260505053057 72 357 0.0 4.0 0.00 0.00 0.00 85 1009.2
20260505051546 72 242 0.0 5.0 0.00 0.00 0.00 84 1009.4
20260505041554 73 0 0.0 5.0 0.00 0.00 0.00 82 1009.0
20260505040054 73 0 0.0 3.0 0.00 0.00 0.00 82 1009.2
20260505034543 74 0 0.0 4.0 0.00 0.00 0.00 81 1009.1
20260505033041 74 276 0.0 1.0 0.00 0.00 0.00 80 1009.1
20260505031544 74 257 0.0 2.0 0.00 0.00 0.00 80 1009.0
20260505030048 75 326 0.0 2.0 0.00 0.00 0.00 79 1009.3
20260505024556 75 0 0.0 1.0 0.00 0.00 0.00 78 1009.0
20260505023045 75 302 0.0 1.0 0.00 0.00 0.00 78 1008.9
20260505021542 76 0 0.0 1.0 0.00 0.00 0.00 77 1009.0
20260505020041 76 0 0.0 1.0 0.00 0.00 0.00 76 1008.9
20260505014604 77 0 0.0 2.0 0.00 0.00 0.00 75 1008.9
20260505013049 77 256 0.0 3.0 0.00 0.00 0.00 74 1008.9
20260505011556 78 238 0.0 3.0 0.00 0.00 0.00 72 1008.8
20260505010052 78 313 1.0 7.0 0.00 0.00 0.00 70 1008.5
20260505004546 79 313 0.0 3.0 0.00 0.00 0.00 69 1008.6
20260505003048 80 324 0.0 8.0 0.00 0.00 0.00 67 1008.4
20260505001550 80 0 0.0 4.0 0.00 0.00 0.00 66 1008.4
20260505000100 81 0 0.0 4.0 0.00 0.00 0.00 65 1008.5
20260504234629 81 49 1.0 6.0 0.00 0.00 0.00 63 1008.7
20260504233330 82 0 1.0 4.0 0.00 0.00 0.00 63 1008.8
20260504081544 63 0 0.0 1.0 0.00 0.00 0.00 78 1015.4